Weather History for Glendive, MT

Change the Weather History Date:

Tuesday, February 5, 2013

  Actual Average Record
Temperature  
Mean Temperature 30 °F -  
Max Temperature 37 °F 29 °F 51 °F (2009)
Min Temperature 24 °F 11 °F -18 °F (2014)
Degree Days  
Heating Degree Days 34    
Moisture  
Dew Point 25 °F    
Average Humidity 75    
Maximum Humidity 87    
Minimum Humidity 65    
Precipitation  
Precipitation 0.00 in - - ()
Sea Level Pressure  
Sea Level Pressure 29.85 in    
Wind  
Wind Speed 10 mph (SW)    
Max Wind Speed 17 mph    
Max Gust Speed 24 mph    
Visibility 10 miles    
Events      
Averages and records for this station are not official NWS values.
T = Trace of Precipitation, MM = Missing Value Source: NWS Daily Summary

Daily Weather History Graph

Daily Weather History Graph

Search for Another Location

Airport:

Trip Planner

Search our weather history database for the weather conditions in past years. The results will help you decide how hot, cold, wet, or windy it might be!

Date:

Astronomy

Feb. 05, 2013 Rise Set
Actual Time 7:18 AM MST 5:08 PM MST
Civil Twilight 6:46 AM MST 5:40 PM MST
Nautical Twilight 6:10 AM MST 6:17 PM MST
Astronomical Twilight 5:34 AM MST 6:52 PM MST
Moon 3:10 AM MST (2/5) 12:20 PM MST (2/5)
Length of Visible Light 10h 54m
Length of Day
9h 49m
Waning Crescent, 26% of the Moon is Illuminated
Feb 5
Waning Crescent
Feb 10
New
Feb 17
First Quarter
Feb 25
Full
Mar 4
Last Quarter

Hourly Weather History & Observations

Time (MST) Temp. Windchill Dew Point Humidity Pressure Visibility Wind Dir Wind Speed Gust Speed Precip Events Conditions
12:15 AM 32.0 °F 22.1 °F 24.8 °F 75% 29.83 in 10.0 mi West 13.8 mph - N/A   Overcast
12:55 AM 33.8 °F 23.5 °F 24.8 °F 70% 29.84 in 10.0 mi WNW 16.1 mph - N/A   Overcast
1:15 AM 33.8 °F 23.5 °F 24.8 °F 70% 29.85 in 10.0 mi WNW 16.1 mph 24.2 mph N/A   Mostly Cloudy
1:35 AM 33.8 °F 23.9 °F 24.8 °F 70% 29.87 in 10.0 mi West 15.0 mph 21.9 mph N/A   Overcast
1:55 AM 32.0 °F 20.8 °F 23.0 °F 69% 29.87 in 10.0 mi West 17.3 mph - N/A   Mostly Cloudy
2:15 AM 30.2 °F 19.8 °F 23.0 °F 75% 29.88 in 10.0 mi West 13.8 mph - N/A   Overcast
2:35 AM 30.2 °F 19.8 °F 23.0 °F 75% 29.88 in 10.0 mi West 13.8 mph - N/A   Overcast
2:55 AM 30.2 °F 19.3 °F 24.8 °F 80% 29.88 in 10.0 mi West 15.0 mph 19.6 mph N/A   Overcast
3:15 AM 30.2 °F 20.2 °F 23.0 °F 75% 29.88 in 10.0 mi WNW 12.7 mph 20.7 mph N/A   Overcast
3:35 AM 28.4 °F 18.5 °F 23.0 °F 80% 29.89 in 10.0 mi West 11.5 mph - N/A   Scattered Clouds
3:55 AM 26.6 °F 16.2 °F 23.0 °F 86% 29.90 in 10.0 mi West 11.5 mph - N/A   Clear
4:35 AM 26.6 °F 16.8 °F 19.4 °F 74% 29.92 in 10.0 mi West 10.4 mph - N/A   Clear
4:55 AM 26.6 °F 17.5 °F 21.2 °F 80% 29.92 in 10.0 mi West 9.2 mph - N/A   Clear
5:15 AM 24.8 °F 16.1 °F 19.4 °F 80% 29.92 in 10.0 mi West 8.1 mph - N/A   Mostly Cloudy
5:35 AM 24.8 °F 20.5 °F 21.2 °F 86% 29.93 in 10.0 mi WNW 3.5 mph - N/A   Overcast
5:55 AM 24.8 °F 16.1 °F 21.2 °F 86% 29.93 in 10.0 mi NW 8.1 mph - N/A   Overcast
6:15 AM 26.6 °F 20.0 °F 19.4 °F 74% 29.93 in 10.0 mi WNW 5.8 mph - N/A   Overcast
6:35 AM 26.6 °F 20.0 °F 21.2 °F 80% 29.93 in 10.0 mi North 5.8 mph - N/A   Overcast
7:15 AM 24.8 °F 16.1 °F 21.2 °F 86% 29.93 in 10.0 mi NNW 8.1 mph - N/A   Overcast
7:35 AM 24.8 °F 16.1 °F 21.2 °F 86% 29.93 in 10.0 mi NW 8.1 mph - N/A   Overcast
7:55 AM 24.8 °F 16.1 °F 21.2 °F 86% 29.93 in 10.0 mi NNW 8.1 mph - N/A   Overcast
8:15 AM 26.6 °F 19.1 °F 21.2 °F 80% 29.94 in 10.0 mi North 6.9 mph - N/A   Overcast
8:35 AM 26.6 °F 19.1 °F 21.2 °F 80% 29.94 in 10.0 mi NNW 6.9 mph - N/A   Overcast
8:55 AM 28.4 °F - 21.2 °F 74% 29.95 in 10.0 mi Calm Calm - N/A   Overcast
9:15 AM 30.2 °F 21.3 °F 23.0 °F 75% 29.96 in 10.0 mi South 10.4 mph - N/A   Overcast
9:35 AM 32.0 °F 24.8 °F 24.8 °F 75% 29.96 in 10.0 mi SW 8.1 mph - N/A   Overcast
9:55 AM 33.8 °F 28.6 °F 24.8 °F 70% 29.96 in 10.0 mi SW 5.8 mph - N/A   Overcast
10:15 AM 33.8 °F 27.0 °F 24.8 °F 70% 29.96 in 10.0 mi SW 8.1 mph - N/A   Overcast
10:35 AM 33.8 °F 28.6 °F 24.8 °F 70% 29.95 in 10.0 mi SSW 5.8 mph - N/A   Mostly Cloudy
10:56 AM 33.8 °F 29.6 °F 24.8 °F 70% 29.94 in 10.0 mi SSW 4.6 mph - N/A   Mostly Cloudy
11:35 AM 35.6 °F 29.9 °F 24.8 °F 65% 29.93 in 10.0 mi SSW 6.9 mph - N/A   Overcast
11:55 AM 35.6 °F 29.2 °F 24.8 °F 65% 29.92 in 10.0 mi SSW 8.1 mph - N/A   Overcast
12:15 PM 35.6 °F 29.2 °F 24.8 °F 65% 29.90 in 10.0 mi South 8.1 mph - N/A   Scattered Clouds
12:35 PM 35.6 °F 30.7 °F 24.8 °F 65% 29.90 in 10.0 mi South 5.8 mph - N/A   Clear
12:55 PM 35.6 °F 29.9 °F 24.8 °F 65% 29.89 in 10.0 mi South 6.9 mph - N/A   Partly Cloudy
1:15 PM 35.6 °F 30.7 °F 26.6 °F 70% 29.88 in 10.0 mi South 5.8 mph - N/A   Mostly Cloudy
1:35 PM 35.6 °F 29.9 °F 26.6 °F 70% 29.87 in 10.0 mi South 6.9 mph - N/A   Overcast
1:55 PM 35.6 °F 29.2 °F 26.6 °F 70% 29.86 in 10.0 mi SSE 8.1 mph - N/A   Overcast
2:15 PM 35.6 °F 29.2 °F 26.6 °F 70% 29.85 in 10.0 mi SSE 8.1 mph - N/A   Overcast
2:35 PM 35.6 °F 29.9 °F 26.6 °F 70% 29.84 in 10.0 mi SE 6.9 mph - N/A   Overcast
2:55 PM 37.4 °F 30.8 °F 26.6 °F 65% 29.83 in 10.0 mi SSE 9.2 mph - N/A   Scattered Clouds
3:15 PM 37.4 °F 32.1 °F 26.6 °F 65% 29.83 in 10.0 mi SSE 6.9 mph - N/A   Clear
3:35 PM 37.4 °F 31.4 °F 26.6 °F 65% 29.82 in 10.0 mi SE 8.1 mph - N/A   Clear
3:55 PM 37.4 °F 31.4 °F 26.6 °F 65% 29.80 in 10.0 mi SSE 8.1 mph - N/A   Clear
4:15 PM 37.4 °F 32.1 °F 26.6 °F 65% 29.79 in 10.0 mi SSE 6.9 mph - N/A   Clear
4:35 PM 37.4 °F 31.4 °F 26.6 °F 65% 29.79 in 10.0 mi SE 8.1 mph - N/A   Clear
4:55 PM 35.6 °F 29.9 °F 26.6 °F 70% 29.78 in 10.0 mi SE 6.9 mph - N/A   Clear
5:15 PM 33.8 °F 27.7 °F 26.6 °F 75% 29.78 in 10.0 mi SE 6.9 mph - N/A   Clear
5:55 PM 33.8 °F 28.6 °F 24.8 °F 70% 29.77 in 10.0 mi SSE 5.8 mph - N/A   Clear
6:15 PM 33.8 °F 29.6 °F 26.6 °F 75% 29.76 in 10.0 mi SSE 4.6 mph - N/A   Clear
6:35 PM 33.8 °F 30.8 °F 26.6 °F 75% 29.75 in 10.0 mi SE 3.5 mph - N/A   Clear
6:55 PM 30.2 °F 26.7 °F 24.8 °F 80% 29.75 in 10.0 mi SE 3.5 mph - N/A   Clear
7:15 PM 32.0 °F 27.5 °F 26.6 °F 80% 29.75 in 10.0 mi SSE 4.6 mph - N/A   Clear
7:55 PM 33.8 °F 29.6 °F 26.6 °F 75% 29.72 in 10.0 mi SE 4.6 mph - N/A   Mostly Cloudy
8:15 PM 33.8 °F 29.6 °F 26.6 °F 75% 29.72 in 10.0 mi SE 4.6 mph - N/A   Mostly Cloudy
8:35 PM 30.2 °F - 24.8 °F 80% 29.71 in 10.0 mi Calm Calm - N/A   Overcast
9:15 PM 33.8 °F 30.8 °F 26.6 °F 75% 29.70 in 10.0 mi South 3.5 mph - N/A   Overcast
9:35 PM 32.0 °F - 28.4 °F 87% 29.70 in 10.0 mi Calm Calm - N/A   Overcast
9:55 PM 32.0 °F 26.4 °F 26.6 °F 80% 29.70 in 10.0 mi SW 5.8 mph - N/A   Overcast
10:15 PM 30.2 °F 25.4 °F 26.6 °F 86% 29.70 in 10.0 mi SW 4.6 mph - N/A   Scattered Clouds
10:55 PM 30.2 °F 22.6 °F 26.6 °F 86% 29.69 in 10.0 mi SSW 8.1 mph - N/A   Clear
11:15 PM 30.2 °F 22.6 °F 26.6 °F 86% 29.69 in 10.0 mi SSW 8.1 mph - N/A   Clear
11:35 PM 30.2 °F 23.4 °F 26.6 °F 86% 29.69 in 10.0 mi SSW 6.9 mph - N/A   Scattered Clouds